User: anonymous   Login
Location: Kailua
(21.4020°N, 157.7390°W)
Time: 10:44:39
(UTC-10:00)
Language:

Cosmos 2297 Rocket - Orbit

View from above orbital plane
View from above orbital plane
View from above satellite
View from above satellite

Ground track
Ground track

The orbit data is extracted from the following two-line orbital elements,

1 23405U 94077B   14327.53103271  .00000246  00000-0  15144-3 0  9877
2 23405 070.9840 024.6512 0004773 290.3665 203.3263 14.15119025 33000
Epoch (UTC): 23 November 2014 12:44:41
Eccentricity: 0.0004773
inclination: 70.9840°
perigee height: 838 km
apogee height: 845 km
right ascension of ascending node: 24.6512°
argument of perigee: 290.3665°
revolutions per day: 14.15119025
mean anomaly at epoch: 203.3263°
orbit number at epoch: 3300

The dashed part of the orbit path shows where the satellite is in the earth's shadow,  

DLR